Weather in Yanyshi

Russia / Chuvash Republic     55°55′34″N   46°57′28″E
temp.,
°C
wind,
m/s
gust,
m/s
humid.,
%
clouds,
%
prec.,
mm/h
press.,
hPa
HPBL,
m
4 july, mon
mon400:00+15nne3878100 0.0 1013341
03:00+12nne488991 0.1 1014185
06:00+13n488351 0.0 1015304
09:00+18nne595425 0.0 10141407
12:00+21nne684734 0.0 10132213
15:00+21ne674657 0.0 10142020
18:00+19ne5860100 0.0 1014518
21:00+13ene3579100 0.0 101568
5 july, tue
tue500:00+11ne228474 0.0 101710
03:00+10nne2390100 0.0 101828
06:00+13ne247410 0.0 1018153
09:00+18ene225229 0.0 1018899
12:00+21sw124494 0.0 10181700
15:00+22w334310 0.0 10171712
18:00+20w466219 0.0 1017262
21:00+14w227615 0.0 101715
6 july, wed
wed600:00+13w227460 0.0 101821
03:00+12wsw33781 0.0 101827
06:00+15wsw35730 0.0 1018144
09:00+20wsw456066 0.0 1017506
12:00+23wsw44515 0.0 10171081
15:00+24wsw44525 0.0 10161381
18:00+23sw476798 0.0 1015398
21:00+18sw4878100 0.0 1016114
7 july, thu
thu700:00+16sw497941 0.0 1016139
03:00+15sw498011 0.0 1016155
06:00+18sw497745 0.0 1016222
09:00+23sw576868 0.0 1016498
12:00+27sw565916 0.0 10161193
15:00+28wsw5655100 0.3 10151870
18:00+25ssw477032 0.0 1014333
21:00+21ssw498737 0.8 1015132
8 july, fri
fri800:00+20nw2293100 1.8 101636
03:00+18wnw1192100 1.9 101612
06:00+20wsw238786 0.4 1017135
09:00+24wsw237540 0.8 1017608
12:00+27wsw346422 0.0 10171176
15:00+27w456212 1.3 10171374
18:00+26nw237118 0.6 1016469
21:00+21nne00827 1.1 101711